Location: East Arcadia
(34.1056°N, 118.0176°W)
Time: 10:43:34
(UTC+00:00)

DELTA 2 R/B (1) - Pass Details

Date: 11 December 2023
Orbit: 788 x 802 km, 39.6° (Epoch: 21 February)

Event Time Altitude Azimuth Distance (km) Brightness Sun altitude
Rises 02:39:25 0° 265° (W) 3,295 8.2 -23.5°
Reaches altitude 10° 02:41:58 10° 270° (W) 2,364 7.1 -24.0°
Maximum altitude 02:47:26 56° 348° (NNW) 940 3.8 -25.1°
Enters shadow 02:48:03 53° 14° (NNE) 970 3.8 -25.2°
